Home > Weather > Jessore > Past weeks

Flag for Bangladesh Past Weather in Jessore, Bangladesh — Yesterday and Last 2 Weeks

Now
77 °F

Warm.


Feels Like: 78 °F
Forecast: 80 / 93 °F
Wind: No wind

Location: Phrae

Current Time: Jul 28, 2016 at 3:13:30 AM

Latest Report: Jul 28, 2016 at 2:00 AM


Visibility: 4 mi

Pressure: 29.68 "Hg

Humidity: 94%

Dew Point: 75 °F

Location of JessoreLocation

Past Weather in Jessore — Graph

°F

Jessore Temperature Yesterday

Maximum temperature yesterday: 93 °F (at 2:00 PM)
Minimum temperature yesterday: 77 °F (at 3:00 AM)
Average temperature yesterday: 83 °F

High & Low Weather Summary for the Past Weeks

 TemperatureHumidityPressure
High95 °F (Jul 17, 2:00 PM)100% (Jul 15, 11:00 PM)29.92 "Hg (Jul 15, 11:00 PM)
Low73 °F (Jul 15, 11:00 PM)47% (Jul 17, 2:00 PM)29.56 "Hg (Jul 13, 3:00 PM)
Average83 °F76%29.76 "Hg
* Reported Jul 13 2:00 AM — Jul 28 2:00 AM, Jessore, Weather by CustomWeather, © 2016

Note: Actual official high and low records may vary slightly from our data, if they occured in-between our weather recording intervals... More about our weather records

Advertising

Jessore Weather History for the Previous 24 Hours

Scroll right to see more
 ConditionsComfort  
Time TempWeatherWind HumidityBarometerVisibility
2:00 AM
Thu, Jul 28
77 °FWarm.No wind94%29.68 "Hg4 mi
1:00 AM77 °FWarm.1 mph94%29.68 "Hg4 mi
12:00 AM77 °FWarm.No wind89%29.71 "Hg3 mi
11:00 PM
Wed, Jul 27
77 °FWarm.1 mph83%29.71 "Hg4 mi
10:00 PM79 °FWarm.1 mph74%29.74 "Hg4 mi
9:00 PM79 °FWarm.2 mph79%29.74 "Hg4 mi
8:00 PM79 °FWarm.2 mph79%29.74 "Hg3 mi
7:00 PM81 °FWarm.3 mph79%29.68 "Hg4 mi
6:00 PM82 °FWarm.5 mph66%29.65 "Hg3 mi
5:00 PM84 °FWarm.1 mph66%29.62 "Hg2 mi
4:00 PM88 °FWarm.5 mph55%29.62 "Hg1 mi
3:00 PM91 °FHot.3 mph59%29.62 "Hg1 mi
2:00 PM93 °FPassing clouds.6 mph59%29.62 "HgN/A
1:00 PM91 °FThunderstorms. Passing clouds.2 mph59%29.68 "HgN/A
12:00 PM90 °FScattered clouds.2 mph63%29.71 "HgN/A
11:00 AM91 °FPassing clouds.1 mph67%29.71 "HgN/A
10:00 AM90 °FPassing clouds.3 mph63%29.74 "HgN/A
9:00 AM86 °FPassing clouds.2 mph70%29.74 "HgN/A
8:00 AM82 °FPassing clouds.6 mph79%29.77 "HgN/A
7:00 AM81 °FWarm.1 mph84%29.77 "Hg1 mi
5:00 AM77 °FWarm.No wind94%29.74 "Hg2 mi
4:00 AM77 °FWarm.2 mph100%29.74 "Hg3 mi
3:00 AM77 °FWarm.1 mph100%29.71 "Hg3 mi
Weather by CustomWeather, © 2016

See weather overviewHow to use our weather pages